Terug naar catalogus

YINHE 2-01

ActiefCommunicatieVLEO
NORAD 51946·PAYLOAD·🇨🇳 China
Deze satellietnaam is nog niet bevestigd door officiële bronnen.

Gelanceerd Mar 5, 2022 vanaf Xichang Satellite Launch Center

Loading…

Volgende Passages (komende 24 uur)

TLE

VersSource: Space-Track

Epoch: Sep 14, 2026, 23:01 UTC

1 51946U 22023A   26257.95966060  .00012323  00000-0  51229-3 0  9990
2 51946  63.4786 325.6455 0118400 346.1331  13.6537 15.17907665251343

Volg YINHE 2-01 in realtime met AllMySat

Download on the App Store